Location: Arpaise
(41.0333°N, 14.7333°E)
Time: 01:44:35
(UTC+00:00)

Cosmos 1452 Rocket - Pass Details

Date: 05 July 2020
Orbit: 768 x 774 km, 74.1° (Epoch: 11 August)

Event Time Altitude Azimuth Distance (km) Brightness Sun altitude
Rises 23:27:41 0° 336° (NNW) 3,252 7.7 -26.1°
Reaches altitude 10° 23:30:06 10° 333° (NNW) 2,320 6.7 -26.1°
Enters shadow 23:35:04 59° 266° (W) 886 3.6 -25.9°
